• In Uzbekistan
  • List of Countries
  • For 7 days
  • Water Temperature
  • Satellite Maps
  • Weather Map
  • Weather Widgets
  • user-avatar
    Login

    Hourly Weather Roma

    Today, 18 June, Monday

    Time Temperature Precipitation Wind Pressure Humidity
    00:00 +6°C° 0 mm 2 mps 625 mmHg 26%
    01:00 +6°C° 0 mm 2 mps 625 mmHg 26%
    02:00 +7°C° 0 mm 1 mps 624 mmHg 27%
    03:00 +5°C° 0 mm 2 mps 624 mmHg 28%
    04:00 +5°C° 0 mm 2 mps 624 mmHg 29%
    05:00 +5°C° 0 mm 2 mps 624 mmHg 29%
    06:00 +6°C° 0 mm 2 mps 624 mmHg 30%
    07:00 +6°C° 0 mm 2 mps 625 mmHg 31%
    08:00 +9°C° 0 mm 2 mps 626 mmHg 30%
    09:00 +12°C° 0 mm 2 mps 626 mmHg 28%
    10:00 +14°C° 0 mm 2 mps 627 mmHg 25%
    11:00 +16°C° 0 mm 3 mps 627 mmHg 23%
    12:00 +16°C° 0 mm 3 mps 627 mmHg 22%
    13:00 +17°C° 0 mm 3 mps 626 mmHg 20%
    14:00 +18°C° 0 mm 3 mps 626 mmHg 18%
    15:00 +16°C° 0 mm 3 mps 625 mmHg 22%
    16:00 +15°C° 0 mm 2 mps 625 mmHg 25%
    17:00 +13°C° 0 mm 2 mps 624 mmHg 28%
    18:00 +12°C° 0 mm 2 mps 624 mmHg 31%
    19:00 +10°C° 0 mm 2 mps 624 mmHg 34%
    20:00 +8°C° 0 mm 2 mps 623 mmHg 36%
    21:00 +8°C° 0 mm 2 mps 623 mmHg 37%
    22:00 +8°C° 0 mm 2 mps 623 mmHg 38%
    23:00 +7°C° 0 mm 2 mps 623 mmHg 39%

    Tomorrow, 19 June, Tuesday

    Time Temperature Precipitation Wind Pressure Humidity
    00:00 +7°C° 0 mm 2 mps 623 mmHg 39%
    01:00 +7°C° 0 mm 2 mps 623 mmHg 39%
    02:00 +6°C° 0 mm 2 mps 623 mmHg 40%
    03:00 +6°C° 0 mm 2 mps 623 mmHg 42%
    04:00 +6°C° 0 mm 2 mps 622 mmHg 45%
    05:00 +5°C° 0 mm 2 mps 622 mmHg 47%
    06:00 +6°C° 0 mm 2 mps 623 mmHg 44%
    07:00 +6°C° 0 mm 2 mps 623 mmHg 41%
    08:00 +7°C° 0 mm 2 mps 624 mmHg 38%
    09:00 +10°C° 0 mm 2 mps 625 mmHg 31%
    10:00 +13°C° 0 mm 2 mps 626 mmHg 24%
    11:00 +16°C° 0 mm 3 mps 627 mmHg 17%
    12:00 +17°C° 0 mm 3 mps 626 mmHg 16%
    13:00 +17°C° 0 mm 4 mps 626 mmHg 15%
    14:00 +17°C° 0 mm 5 mps 626 mmHg 14%
    15:00 +17°C° 0 mm 4 mps 625 mmHg 18%
    16:00 +14°C° 0 mm 3 mps 625 mmHg 21%
    17:00 +14°C° 0 mm 2 mps 625 mmHg 24%
    18:00 +12°C° 0 mm 2 mps 624 mmHg 27%
    19:00 +10°C° 0 mm 1 mps 624 mmHg 30%
    20:00 +9°C° 0 mm 1 mps 624 mmHg 32%
    21:00 +8°C° 0 mm 1 mps 624 mmHg 33%
    22:00 +8°C° 0 mm 1 mps 624 mmHg 34%
    23:00 +7°C° 0 mm 1 mps 624 mmHg 35%

    Day after tomorrow, 20 June, Wednesday

    Time Temperature Precipitation Wind Pressure Humidity
    00:00 +7°C° 0 mm 1 mps 624 mmHg 35%
    01:00 +7°C° 0 mm 1 mps 624 mmHg 36%
    02:00 +6°C° 0 mm 1 mps 624 mmHg 36%
    03:00 +6°C° 0 mm 1 mps 624 mmHg 37%
    04:00 +6°C° 0 mm 1 mps 624 mmHg 38%
    05:00 +5°C° 0 mm 1 mps 624 mmHg 39%
    06:00 +6°C° 0 mm 1 mps 624 mmHg 38%
    07:00 +7°C° 0 mm 1 mps 625 mmHg 37%
    08:00 +8°C° 0 mm 1 mps 626 mmHg 36%
    09:00 +9°C° 0 mm 2 mps 627 mmHg 30%
    10:00 +13°C° 0 mm 2 mps 628 mmHg 25%
    11:00 +16°C° 0 mm 2 mps 629 mmHg 19%
    12:00 +17°C° 0 mm 3 mps 629 mmHg 19%
    13:00 +18°C° 0 mm 4 mps 629 mmHg 18%
    14:00 +17°C° 0 mm 5 mps 629 mmHg 18%
    15:00 +17°C° 0 mm 4 mps 628 mmHg 21%
    16:00 +14°C° 0 mm 3 mps 628 mmHg 24%
    17:00 +14°C° 0 mm 2 mps 627 mmHg 27%
    18:00 +12°C° 0 mm 2 mps 627 mmHg 29%
    19:00 +10°C° 0 mm 1 mps 627 mmHg 32%
    20:00 +9°C° 0 mm 1 mps 626 mmHg 35%
    21:00 +9°C° 0 mm 1 mps 627 mmHg 35%
    22:00 +8°C° 0 mm 1 mps 627 mmHg 35%
    23:00 +8°C° 0 mm 1 mps 627 mmHg 35%

    21 June, Thursday

    Time Temperature Precipitation Wind Pressure Humidity
    00:00 +8°C° 0 mm 1 mps 627 mmHg 35%
    01:00 +8°C° 0 mm 1 mps 626 mmHg 35%
    02:00 +6°C° 0 mm 2 mps 626 mmHg 35%
    03:00 +6°C° 0 mm 2 mps 626 mmHg 35%
    04:00 +6°C° 0 mm 2 mps 626 mmHg 36%
    05:00 +6°C° 0 mm 2 mps 626 mmHg 36%
    06:00 +7°C° 0 mm 2 mps 627 mmHg 36%
    07:00 +7°C° 0 mm 2 mps 627 mmHg 35%
    08:00 +8°C° 0 mm 2 mps 628 mmHg 34%
    09:00 +11°C° 0 mm 3 mps 629 mmHg 29%
    10:00 +14°C° 0 mm 4 mps 630 mmHg 25%
    11:00 +17°C° 0 mm 5 mps 631 mmHg 20%
    12:00 +17°C° 0 mm 6 mps 630 mmHg 19%
    13:00 +19°C° 0 mm 6 mps 630 mmHg 19%
    14:00 +18°C° 0 mm 7 mps 629 mmHg 18%
    15:00 +17°C° 0 mm 5 mps 629 mmHg 21%
    16:00 +15°C° 0 mm 4 mps 628 mmHg 24%
    17:00 +14°C° 0 mm 3 mps 628 mmHg 27%
    18:00 +14°C° 0 mm 2 mps 627 mmHg 29%
    19:00 +12°C° 0 mm 2 mps 627 mmHg 30%
    20:00 +10°C° 0 mm 2 mps 627 mmHg 32%
    21:00 +9°C° 0 mm 2 mps 627 mmHg 33%
    22:00 +9°C° 0 mm 2 mps 627 mmHg 34%
    23:00 +9°C° 0 mm 1 mps 627 mmHg 35%

    22 June, Friday

    Time Temperature Precipitation Wind Pressure Humidity
    00:00 +9°C° 0 mm 1 mps 627 mmHg 36%
    01:00 +8°C° 0 mm 1 mps 627 mmHg 37%
    02:00 +8°C° 0 mm 1 mps 627 mmHg 38%
    03:00 +7°C° 0 mm 1 mps 627 mmHg 40%
    04:00 +7°C° 0 mm 1 mps 626 mmHg 42%
    05:00 +7°C° 0 mm 1 mps 626 mmHg 45%
    06:00 +7°C° 0 mm 1 mps 627 mmHg 43%
    07:00 +8°C° 0 mm 1 mps 628 mmHg 41%
    08:00 +9°C° 0 mm 1 mps 628 mmHg 39%
    09:00 +12°C° 0 mm 1 mps 629 mmHg 33%
    10:00 +14°C° 0 mm 1 mps 630 mmHg 27%
    11:00 +18°C° 0 mm 1 mps 631 mmHg 21%
    12:00 +19°C° 0 mm 1 mps 631 mmHg 19%
    13:00 +18°C° 0 mm 2 mps 630 mmHg 18%
    14:00 +19°C° 0 mm 2 mps 630 mmHg 17%
    15:00 +18°C° 0 mm 1 mps 629 mmHg 21%
    16:00 +16°C° 0 mm 1 mps 629 mmHg 24%
    17:00 +14°C° 0 mm 1 mps 628 mmHg 28%
    18:00 +13°C° 0 mm 1 mps 628 mmHg 30%
    19:00 +11°C° 0 mm 1 mps 628 mmHg 32%
    20:00 +10°C° 0 mm 1 mps 627 mmHg 34%
    21:00 +9°C° 0 mm 1 mps 627 mmHg 35%
    22:00 +9°C° 0 mm 1 mps 627 mmHg 36%
    23:00 +8°C° 0 mm 1 mps 627 mmHg 37%

    23 June, Saturday

    Time Temperature Precipitation Wind Pressure Humidity
    00:00 +8°C° 0 mm 1 mps 627 mmHg 38%
    01:00 +8°C° 0 mm 1 mps 627 mmHg 38%
    02:00 +7°C° 0 mm 1 mps 627 mmHg 39%
    03:00 +7°C° 0 mm 1 mps 626 mmHg 39%
    04:00 +7°C° 0 mm 1 mps 626 mmHg 40%
    05:00 +6°C° 0 mm 2 mps 626 mmHg 40%
    06:00 +6°C° 0 mm 2 mps 627 mmHg 39%
    07:00 +7°C° 0 mm 2 mps 627 mmHg 38%
    08:00 +8°C° 0 mm 2 mps 628 mmHg 37%
    09:00 +10°C° 0 mm 3 mps 628 mmHg 34%
    10:00 +13°C° 0 mm 3 mps 629 mmHg 30%
    11:00 +17°C° 0 mm 4 mps 630 mmHg 27%
    12:00 +16°C° 0 mm 5 mps 629 mmHg 26%
    13:00 +17°C° 0 mm 6 mps 629 mmHg 25%
    14:00 +18°C° 0 mm 7 mps 628 mmHg 25%
    15:00 +17°C° 0 mm 6 mps 628 mmHg 28%
    16:00 +15°C° 0 mm 4 mps 627 mmHg 30%
    17:00 +14°C° 0 mm 3 mps 627 mmHg 33%
    18:00 +13°C° 0 mm 3 mps 626 mmHg 36%
    19:00 +12°C° 0 mm 2 mps 626 mmHg 39%
    20:00 +10°C° 0 mm 2 mps 626 mmHg 41%
    21:00 +10°C° 0 mm 2 mps 626 mmHg 42%
    22:00 +9°C° 0 mm 2 mps 626 mmHg 43%
    23:00 +10°C° 0 mm 1 mps 626 mmHg 44%
    Show more